Wind_Speed
19 19 18 18 18 18 18 17 17 17 17 17 17 16 16 15 14 13 13 13 13 12 12 13 12 12 12 12 12 11 10 10 9 8 7 7 6 5 4 4 3 3 2
20 20 20 19 19 19 19 19 18 18 18 18 18 18 17 17 16 15 14 14 14 14 14 13 13 14 13 13 13 12 12 11 10 9 8 8 7 6 5 5 4 4 3
21 21 21 21 21 21 21 21 21 20 19 19 20 20 19 18 18 17 16 16 15 15 16 15 15 15 14 14 14 14 13 12 11 10 9 8 8 7 7 6 5 5 4
23 23 23 22 22 22 22 22 22 22 22 21 21 21 21 20 20 19 18 18 17 17 17 16 16 16 15 16 15 15 14 13 12 11 10 9 9 8 7 7 5 5 5
24 25 25 24 24 24 24 24 24 24 23 23 23 23 22 22 22 22 21 20 19 19 18 18 18 18 17 17 17 16 16 15 14 12 11 10 9 9 8 7 6 6 6
25 26 26 26 26 26 26 26 25 26 25 25 26 25 24 24 23 23 23 22 21 21 20 20 20 19 20 19 18 18 17 17 16 14 13 11 10 10 9 8 7 7 7
26 26 27 27 28 28 28 27 27 27 27 27 27 28 27 26 26 25 25 24 24 23 23 22 22 21 21 21 20 20 19 18 17 16 15 13 12 11 10 9 9 8 8
27 28 27 28 28 29 29 29 29 29 29 29 29 30 30 29 28 28 27 27 26 25 24 24 23 23 23 23 22 22 21 20 19 18 17 15 14 13 12 11 10 10 9
28 29 29 29 29 29 30 31 30 30 30 30 31 32 32 32 31 30 29 29 28 28 27 26 25 25 25 24 24 23 23 22 21 20 19 17 16 15 14 13 12 11 11
28 29 30 30 30 30 31 31 31 31 31 32 33 33 33 33 33 32 31 30 30 30 29 28 27 27 27 26 25 25 24 24 23 22 21 20 18 17 16 15 14 13 13
29 30 30 31 31 31 31 32 32 32 33 33 34 34 35 35 34 33 33 32 31 31 30 30 29 28 28 28 28 27 26 25 24 23 23 22 21 19 18 17 16 15 15
29 30 31 32 32 32 33 33 34 33 33 34 35 35 36 36 36 35 35 34 33 33 32 32 31 30 29 30 30 29 28 28 26 25 24 24 23 22 21 19 18 17 17
30 30 31 32 33 34 35 35 36 36 35 35 37 37 37 36 36 37 37 36 35 35 34 34 33 32 31 31 31 31 31 29 28 27 26 25 25 24 23 21 20 19 19
30 31 32 33 34 35 36 37 37 37 36 36 37 38 38 38 38 38 38 38 37 36 36 35 34 34 33 33 33 32 32 31 30 29 27 26 27 26 24 23 22 21 20
30 31 33 33 35 36 36 37 38 38 37 37 38 39 39 39 39 40 40 40 39 38 38 37 36 36 35 34 34 34 34 33 32 31 30 28 27 28 27 25 24 23 22
29 30 32 33 34 35 36 36 37 38 38 38 38 40 41 40 39 40 40 40 40 39 39 38 38 37 36 36 35 35 36 35 34 33 32 31 29 29 28 28 27 25 25
28 28 30 31 31 33 34 34 35 35 37 38 37 38 40 40 40 40 39 39 40 41 40 40 39 39 38 38 38 37 36 36 36 36 35 33 32 31 30 29 29 28 27
26 26 27 28 29 30 31 32 32 33 34 36 36 36 37 37 39 40 40 39 40 41 41 41 41 40 39 39 39 39 38 37 37 37 36 35 34 33 32 31 30 30 29
26 26 26 27 28 29 29 30 31 32 33 34 36 36 36 36 38 39 39 40 41 42 42 41 41 41 41 41 40 40 40 39 38 38 37 36 36 35 34 34 33 32 32
26 26 27 27 28 29 30 31 32 32 33 34 35 36 37 37 38 39 39 40 41 42 43 42 42 42 42 42 42 41 40 40 39 39 39 39 38 37 36 35 35 34 33
27 26 26 27 29 30 31 31 32 32 33 33 34 35 36 37 39 39 40 42 42 41 42 43 42 42 43 43 43 43 42 42 41 41 40 40 40 39 38 37 36 35 35
27 27 27 27 27 28 29 31 32 33 32 33 34 35 36 37 39 40 40 41 42 42 43 43 42 42 43 43 43 44 43 43 43 43 41 41 41 40 39 39 38 37 36
27 27 27 27 28 29 29 30 32 33 34 34 34 35 36 37 38 39 40 42 42 43 43 43 42 42 42 42 42 43 44 44 43 42 42 41 40 40 40 39 39 39 38
27 27 28 28 29 30 30 30 30 31 32 33 33 34 35 36 37 39 40 41 42 42 43 43 43 43 43 44 44 45 45 44 44 43 43 42 41 41 41 40 40 40 40
28 28 27 28 29 29 29 29 30 31 31 32 33 33 33 34 35 37 38 40 41 42 44 44 43 44 45 45 45 44 45 45 46 46 45 44 44 44 44 43 42 41 41
27 27 27 28 28 29 29 29 30 30 30 31 31 32 33 33 34 35 36 37 39 41 43 43 44 45 45 46 46 46 46 46 46 46 46 46 45 44 44 44 44 43 42
Wind_Direction
246 245 244 243 240 238 237 235 234 233 232 230 227 227 228 227 224 221 222 220 217 216 215 215 214 214 214 212 210 209 208 208 210 211 212 212 212 213 219 228 235 242 254
247 246 245 244 241 239 238 238 236 235 234 233 231 229 230 230 230 227 225 223 222 221 220 220 219 218 217 214 213 213 213 212 214 216 218 216 219 221 226 234 241 246 257
249 247 246 244 242 240 239 239 239 238 236 235 234 232 231 232 232 232 231 228 227 226 225 226 223 222 219 217 216 216 217 216 218 220 221 220 223 226 228 235 243 249 257
249 249 247 246 244 243 241 239 239 239 237 236 236 236 234 234 235 235 235 233 231 229 230 230 229 226 223 220 219 219 219 220 221 223 225 226 226 229 231 233 240 250 256
248 248 248 247 245 244 242 242 240 240 239 239 239 239 237 235 236 237 237 237 235 233 233 232 231 228 225 223 221 221 221 222 224 226 228 228 227 230 233 234 242 252 257
249 249 248 247 246 245 244 243 242 241 240 241 241 241 240 238 237 238 238 238 239 237 235 235 234 230 227 226 224 223 223 223 225 228 229 229 229 232 236 238 247 252 256
249 249 248 248 247 246 245 245 244 243 242 242 242 242 242 241 240 239 239 239 240 240 239 238 234 232 229 228 227 226 226 225 226 228 229 230 232 235 239 240 246 252 256
250 248 247 248 248 247 247 247 246 245 244 243 243 243 243 243 242 241 241 240 241 241 240 238 236 233 232 230 229 227 227 228 226 228 230 231 232 235 239 241 245 250 257
251 250 249 248 248 249 248 248 248 247 246 244 244 244 244 243 243 243 242 241 241 242 240 238 237 235 233 233 231 229 228 228 228 229 230 231 233 236 240 242 245 250 256
252 251 250 249 248 250 250 249 249 249 248 247 246 245 245 244 243 243 243 243 241 240 239 238 237 237 235 235 234 232 230 229 230 231 232 234 235 238 240 244 247 252 256
254 253 251 249 249 250 251 250 250 250 249 249 248 246 246 245 243 242 243 243 241 238 237 237 237 238 237 237 236 235 232 230 230 233 234 235 236 239 241 245 248 254 257
255 254 252 251 251 251 252 252 252 251 251 250 249 248 246 245 243 242 242 242 241 238 237 237 237 238 237 237 237 236 234 232 232 235 237 236 236 239 243 247 250 254 257
256 255 253 252 252 252 252 253 253 253 252 251 249 248 247 245 244 242 241 241 240 238 237 236 236 237 237 237 237 236 234 234 234 236 238 237 237 240 243 247 249 254 257
258 257 255 253 253 254 253 253 254 254 253 252 249 247 247 245 244 243 242 240 240 239 237 236 236 236 236 237 236 235 235 234 234 236 238 240 240 241 243 245 249 253 256
260 259 257 255 254 254 255 255 254 253 252 252 249 247 246 245 245 245 243 240 239 238 236 235 236 236 236 236 236 235 235 235 236 237 239 241 243 242 243 245 248 252 256
262 261 259 257 256 255 255 256 254 254 253 251 249 248 247 246 245 245 244 240 238 238 237 236 236 237 236 236 237 237 235 235 236 238 238 239 242 244 244 246 249 251 255
263 262 260 258 258 257 257 257 255 253 252 250 250 248 248 246 244 244 243 240 238 238 238 237 237 237 238 237 238 237 236 236 236 237 238 241 243 244 245 247 249 251 254
264 262 261 259 259 258 258 256 254 252 251 249 249 249 248 247 245 243 241 239 238 237 238 238 238 238 239 239 239 238 237 238 238 238 239 240 242 243 245 247 249 251 254
264 262 260 260 259 258 257 255 255 253 252 250 251 251 250 247 245 242 239 237 237 236 237 238 238 238 239 239 239 239 238 239 240 240 241 242 244 245 246 248 250 253 256
264 262 261 261 260 259 258 257 257 256 254 254 253 252 251 247 244 243 240 238 236 236 236 237 239 239 238 239 238 239 239 240 241 243 243 244 245 246 248 249 251 253 255
266 263 263 262 261 260 259 258 258 258 258 255 254 252 250 248 246 244 242 240 238 238 237 237 239 241 239 238 238 238 239 240 241 243 244 244 246 247 249 251 254 254 255
268 266 265 263 263 261 261 260 259 259 258 256 254 252 251 250 247 245 244 241 240 240 238 238 239 241 240 238 238 239 240 241 242 243 244 245 246 247 249 251 253 255 257
268 267 266 265 264 264 264 264 263 261 259 256 256 254 252 251 249 246 244 243 243 241 240 239 240 240 240 239 239 240 241 242 242 243 245 246 247 248 250 251 254 256 259
267 268 268 266 265 265 266 267 265 262 260 258 256 254 253 252 250 246 245 245 243 242 241 240 240 241 242 241 241 242 243 244 243 243 244 246 247 248 250 251 254 257 258
268 268 269 269 267 265 266 266 264 262 260 258 256 255 254 252 250 246 246 246 245 244 243 242 242 242 243 243 242 243 245 246 246 245 245 246 248 249 251 252 253 256 257
268 269 270 270 268 266 266 266 265 263 261 259 257 256 255 252 249 248 248 248 247 245 245 244 242 243 244 244 243 244 245 246 246 246 246 247 249 249 251 253 253 255 258
Height
5836 5837 5837 5839 5840 5841 5842 5843 5844 5845 5846 5847 5848 5849 5850 5851 5852 5853 5853 5854 5855 5856 5856 5857 5858 5859 5860 5861 5862 5862 5863 5864 5865 5866 5866 5867 5867 5867 5868 5868 5868 5868 5868
5832 5833 5834 5835 5836 5837 5839 5840 5841 5842 5843 5844 5846 5847 5848 5848 5849 5850 5851 5852 5853 5854 5854 5855 5856 5857 5858 5859 5860 5861 5862 5863 5864 5864 5865 5866 5866 5866 5867 5867 5867 5867 5867
5828 5829 5830 5831 5832 5834 5835 5836 5837 5839 5840 5841 5843 5844 5845 5846 5847 5848 5849 5850 5850 5851 5852 5853 5853 5854 5855 5856 5858 5859 5860 5861 5862 5863 5864 5864 5865 5865 5866 5866 5866 5866 5866
5824 5825 5826 5827 5828 5829 5831 5832 5834 5835 5836 5838 5839 5840 5841 5843 5844 5844 5845 5847 5847 5848 5849 5850 5851 5852 5853 5854 5855 5857 5858 5859 5860 5861 5862 5863 5863 5864 5864 5864 5865 5865 5865
5819 5820 5821 5822 5824 5825 5826 5828 5829 5831 5832 5834 5835 5837 5838 5839 5840 5841 5842 5843 5844 5845 5846 5847 5848 5849 5850 5851 5853 5854 5856 5857 5858 5859 5860 5861 5861 5862 5862 5863 5863 5863 5863
5814 5814 5816 5817 5818 5820 5821 5823 5825 5826 5828 5829 5831 5832 5834 5835 5836 5837 5838 5839 5840 5841 5843 5844 5845 5846 5847 5848 5850 5851 5853 5854 5856 5857 5858 5859 5860 5860 5861 5861 5861 5862 5862
5808 5809 5810 5811 5813 5814 5816 5818 5819 5821 5823 5824 5826 5828 5829 5830 5832 5833 5834 5835 5836 5837 5839 5840 5841 5842 5843 5845 5846 5848 5850 5851 5853 5854 5856 5857 5858 5858 5859 5859 5860 5860 5860
5802 5803 5804 5805 5807 5808 5810 5812 5814 5815 5817 5819 5821 5822 5824 5825 5827 5828 5829 5830 5832 5833 5834 5835 5837 5838 5840 5841 5843 5844 5846 5848 5850 5851 5853 5854 5855 5856 5857 5857 5858 5858 5858
5796 5797 5798 5799 5801 5802 5804 5806 5807 5809 5811 5813 5815 5816 5818 5820 5821 5823 5824 5825 5826 5827 5829 5830 5832 5834 5835 5837 5839 5841 5843 5845 5847 5848 5850 5851 5852 5853 5854 5854 5855 5855 5856
5789 5790 5792 5793 5795 5796 5798 5799 5801 5803 5805 5806 5808 5809 5811 5813 5815 5816 5818 5820 5821 5822 5823 5825 5827 5829 5831 5833 5834 5836 5838 5840 5843 5845 5847 5848 5849 5850 5851 5852 5852 5853 5853
5783 5783 5784 5786 5788 5789 5791 5792 5794 5796 5798 5800 5801 5802 5804 5806 5808 5810 5812 5813 5815 5816 5818 5820 5822 5824 5826 5827 5829 5832 5834 5836 5838 5841 5843 5844 5846 5847 5847 5848 5849 5850 5850
5775 5776 5777 5778 5780 5782 5783 5785 5786 5788 5790 5792 5793 5794 5797 5798 5800 5802 5804 5806 5808 5810 5812 5814 5816 5818 5820 5822 5824 5827 5829 5832 5834 5836 5838 5840 5842 5843 5844 5845 5845 5846 5847
5767 5768 5769 5770 5772 5774 5775 5777 5778 5780 5782 5783 5785 5786 5788 5790 5792 5794 5797 5799 5801 5803 5806 5808 5810 5812 5814 5817 5819 5821 5824 5827 5829 5831 5833 5835 5837 5838 5840 5841 5841 5842 5843
5760 5760 5761 5762 5763 5765 5766 5768 5769 5771 5773 5774 5776 5778 5780 5782 5784 5786 5789 5791 5794 5797 5799 5801 5803 5806 5808 5811 5813 5816 5818 5821 5824 5826 5828 5830 5832 5833 5835 5836 5837 5838 5838
5752 5752 5753 5754 5755 5756 5757 5758 5760 5762 5764 5765 5767 5769 5771 5774 5776 5778 5780 5783 5786 5789 5792 5795 5797 5799 5802 5804 5807 5810 5813 5815 5818 5821 5823 5824 5826 5828 5829 5831 5832 5833 5834
5744 5744 5744 5745 5746 5747 5748 5749 5750 5752 5754 5756 5757 5759 5762 5765 5767 5769 5771 5775 5778 5781 5784 5787 5790 5793 5795 5798 5801 5803 5806 5809 5812 5814 5817 5819 5820 5822 5824 5825 5827 5828 5829
5736 5736 5736 5736 5737 5738 5738 5739 5741 5742 5744 5746 5748 5750 5752 5755 5757 5759 5762 5766 5770 5773 5777 5780 5783 5785 5788 5791 5794 5797 5799 5802 5805 5808 5810 5812 5814 5816 5818 5819 5821 5822 5823
5728 5728 5728 5729 5729 5729 5730 5731 5732 5734 5735 5737 5739 5740 5742 5745 5748 5750 5754 5758 5761 5765 5768 5772 5775 5778 5781 5784 5787 5789 5792 5795 5798 5800 5803 5805 5807 5809 5811 5813 5814 5816 5817
5721 5721 5721 5721 5722 5722 5723 5724 5725 5726 5727 5728 5730 5731 5733 5736 5738 5741 5745 5749 5752 5756 5760 5763 5766 5770 5773 5776 5779 5782 5785 5788 5790 5793 5796 5798 5800 5802 5804 5806 5807 5808 5810
5715 5715 5714 5714 5715 5715 5716 5717 5718 5718 5720 5720 5722 5723 5725 5727 5729 5733 5736 5740 5743 5747 5751 5755 5758 5761 5764 5768 5771 5774 5777 5780 5783 5785 5788 5790 5792 5795 5797 5799 5800 5801 5802
5708 5707 5708 5708 5708 5708 5709 5709 5710 5711 5712 5712 5713 5715 5716 5718 5721 5724 5727 5731 5734 5738 5742 5745 5748 5752 5755 5758 5762 5765 5768 5771 5774 5777 5780 5782 5784 5787 5789 5790 5792 5794 5795
5701 5700 5701 5701 5701 5701 5701 5702 5703 5703 5704 5704 5705 5706 5708 5710 5712 5715 5718 5722 5725 5728 5732 5736 5739 5742 5745 5749 5753 5756 5759 5763 5765 5768 5771 5774 5776 5778 5780 5782 5784 5785 5786
5694 5694 5693 5694 5694 5694 5694 5694 5694 5695 5695 5696 5697 5698 5700 5701 5703 5706 5709 5712 5715 5718 5722 5726 5730 5733 5736 5739 5743 5747 5750 5754 5757 5760 5762 5764 5767 5769 5771 5773 5775 5776 5777
5687 5687 5686 5686 5686 5686 5686 5686 5686 5687 5687 5688 5689 5690 5691 5692 5694 5697 5700 5703 5706 5709 5712 5716 5720 5723 5726 5729 5733 5737 5741 5744 5747 5751 5753 5755 5757 5760 5762 5764 5765 5767 5768
5680 5680 5679 5679 5679 5679 5679 5679 5679 5679 5679 5679 5680 5681 5682 5684 5685 5688 5691 5693 5696 5699 5702 5706 5709 5713 5717 5720 5723 5727 5730 5733 5736 5740 5743 5746 5748 5750 5752 5755 5756 5758 5759
5673 5673 5672 5672 5671 5671 5671 5671 5670 5670 5670 5671 5671 5672 5673 5675 5677 5679 5682 5684 5686 5689 5692 5695 5699 5702 5706 5710 5713 5716 5720 5723 5726 5729 5732 5736 5738 5741 5743 5744 5746 5748 5749